User: anonymous   Login
Location: Unspecified
(0.0000°N, 0.0000°E)
Time: 16:15:05
(UTC+01:00)
Language:

NOSS 3-3 (A) - Orbit

View from above orbital plane
View from above orbital plane
View from above satellite
View from above satellite

Ground track
Ground track

The orbit data is extracted from the following two-line orbital elements,

1 28537U 05004A   17005.81338721 0.00000000  00000-0  00000-0 0    03
2 28537  63.4264 242.2561 0249000 358.2249   1.7751 13.40717285    01
Epoch (UTC): 05 January 2017 19:31:16
Eccentricity: 0.0249000
inclination: 63.4264°
perigee height: 920 km
apogee height: 1293 km
right ascension of ascending node: 242.2561°
argument of perigee: 358.2249°
revolutions per day: 13.40717285
mean anomaly at epoch: 1.7751°
orbit number at epoch: 0

The dashed part of the orbit path shows where the satellite is in the earth's shadow,  

DLR